DW8661 Weather Reports


time (UTC)temp
F
wind
direction
speed
knots
gust
knots
rain 1hr
in
rain 24hr
in
rain mn
in
humidity
%
barometer
mb
20260508064501 50 46 2.6 6.1 0.00 0.14 0.00 77 1013.6
20260508063000 50 27 4.3 6.1 0.00 0.14 0.00 78 1013.5
20260508061502 50 38 2.6 7.8 0.00 0.14 0.00 78 1013.4
20260508060059 50 49 3.5 7.0 0.00 0.14 0.00 79 1013.5
20260508060002 50 39 2.6 7.0 0.00 0.14 0.00 79 1013.6
20260508054600 50 44 4.3 8.7 0.00 0.14 0.00 79 1013.4
20260508054501 50 39 4.3 8.7 0.00 0.14 0.00 79 1013.5
20260508053001 50 22 2.6 5.2 0.00 0.14 0.00 79 1013.6
20260508051620 50 63 1.7 7.0 0.00 0.14 0.00 79 1013.6
20260508050001 50 8 2.6 5.2 0.00 0.14 0.00 78 1013.6
20260508044605 50 70 2.6 4.3 0.00 0.14 0.00 79 1013.6
20260508044502 50 60 2.6 4.3 0.00 0.14 0.00 78 1013.5
20260508043100 50 67 2.6 4.3 0.00 0.14 0.00 79 1013.4
20260508041559 50 51 2.6 5.2 0.00 0.14 0.00 79 1013.2
20260508040100 50 23 0.0 3.5 0.00 0.14 0.00 80 1013.1
20260508040001 50 23 0.9 3.5 0.00 0.14 0.00 80 1013.1
20260508034601 50 84 0.0 3.5 0.00 0.14 0.00 81 1013.0
20260508033003 49 24 2.6 4.3 0.00 0.14 0.00 81 1013.1
20260508031605 49 336 0.0 5.2 0.00 0.14 0.00 81 1013.2
20260508030119 49 317 0.0 3.5 0.00 0.14 0.00 82 1013.1
20260508030004 49 4 0.0 3.5 0.00 0.14 0.00 82 1013.1
20260508024604 49 37 0.9 2.6 0.00 0.14 0.00 82 1013.1
20260508023100 49 16 0.9 7.0 0.00 0.14 0.00 82 1012.9
20260508021601 49 30 4.3 7.8 0.00 0.14 0.00 82 1012.9
20260508020109 50 23 1.7 4.3 0.00 0.14 0.00 81 1013.2
20260508020001 50 354 1.7 4.3 0.00 0.14 0.00 81 1013.1
20260508014600 50 19 0.9 5.2 0.00 0.14 0.00 81 1013.3
20260508013100 50 18 0.9 5.2 0.00 0.14 0.00 81 1013.7
20260508011601 50 47 2.6 5.2 0.00 0.14 0.00 81 1013.8
20260508010123 51 59 1.7 5.2 0.00 0.14 0.00 81 1013.7
20260508004559 51 15 0.9 2.6 0.00 0.14 0.00 81 1014.0
20260508003117 51 79 0.9 2.6 0.00 0.14 0.00 81 1014.2
20260508001602 52 353 0.9 4.3 0.00 0.14 0.00 80 1014.3
20260508000059 52 65 0.9 3.5 0.00 0.14 0.00 81 1014.4
20260507234559 52 24 0.0 1.7 0.00 0.14 0.00 79 1014.5
20260507233059 53 30 1.7 4.3 0.00 0.14 0.00 77 1014.5
20260507231558 53 28 0.0 2.6 0.00 0.14 0.00 75 1014.6
20260507230112 53 78 0.9 1.7 0.00 0.14 0.00 76 1014.9
20260507230001 53 88 0.9 1.7 0.00 0.14 0.00 76 1014.8
20260507224501 53 76 0.9 2.6 0.00 0.14 0.00 76 1014.8
20260507223001 53 85 0.0 5.2 0.00 0.14 0.00 76 1014.7
20260507221600 54 96 0.9 2.6 0.00 0.14 0.00 75 1014.7
20260507220101 54 66 0.0 2.6 0.00 0.14 0.00 74 1014.7
20260507220001 54 58 0.0 2.6 0.00 0.14 0.14 74 1014.7
20260507214501 54 88 0.0 1.7 0.00 0.14 0.14 75 1014.7
20260507213144 54 109 0.0 3.5 0.00 0.14 0.14 73 1014.5
20260507213001 54 119 0.9 3.5 0.00 0.14 0.14 73 1014.5
20260507211601 55 107 0.9 2.6 0.00 0.14 0.14 73 1014.5
20260507210003 54 148 0.0 1.7 0.00 0.14 0.14 72 1014.2
20260507204501 55 344 0.0 3.5 0.00 0.14 0.14 71 1013.9
20260507203005 55 58 0.9 4.3 0.00 0.14 0.14 69 1013.7
20260507201502 55 49 0.9 3.5 0.00 0.14 0.14 69 1013.5
20260507200005 56 39 1.7 5.2 0.00 0.14 0.14 70 1013.3
20260507194501 56 60 2.6 4.3 0.00 0.14 0.14 71 1013.0
20260507193101 56 67 1.7 4.3 0.00 0.14 0.14 70 1012.8
20260507193006 56 52 1.7 4.3 0.00 0.14 0.14 70 1012.9
20260507191501 56 10 0.9 2.6 0.00 0.14 0.14 70 1012.7
20260507190006 56 49 0.9 6.1 0.00 0.14 0.14 68 1012.4
20260507184504 57 351 2.6 6.1 0.00 0.14 0.14 66 1012.3
20260507183006 57 333 1.7 6.1 0.00 0.14 0.14 66 1012.0
20260507181502 57 74 0.9 2.6 0.00 0.14 0.14 65 1011.8
20260507180005 57 58 0.9 4.3 0.00 0.14 0.14 66 1011.9
20260507174604 57 41 1.7 6.1 0.00 0.14 0.14 66 1011.9
20260507173102 57 37 1.7 7.0 0.00 0.14 0.14 65 1011.9
20260507173003 57 89 3.5 7.0 0.00 0.14 0.14 65 1011.9
20260507171606 57 13 2.6 7.0 0.00 0.14 0.14 65 1012.0
20260507170002 56 4 3.5 9.6 0.00 0.14 0.14 68 1012.1
20260507164603 56 9 2.6 9.6 0.00 0.14 0.14 75 1012.0
20260507163002 55 17 2.6 7.8 0.00 0.14 0.14 78 1011.9
20260507161611 55 293 0.9 4.3 0.00 0.14 0.14 77 1011.8
20260507160004 54 56 3.5 0.0 1.05 0.00 0.14 76 1011.3
20260507154600 54 19 1.7 4.3 0.02 0.14 0.14 78 1011.2
20260507153001 53 35 3.5 7.8 0.04 0.14 0.14 79 1011.2
20260507151501 54 91 1.7 7.0 0.07 0.14 0.14 74 1012.1
20260507150003 53 121 1.7 7.8 0.07 0.13 0.13 77 1012.3
20260507144501 53 90 0.9 7.0 0.12 0.13 0.13 80 1012.3
20260507143102 53 113 8.7 13.0 0.09 0.10 0.10 75 1012.1
20260507141501 53 109 3.5 9.6 0.06 0.07 0.07 81 1012.0
20260507140002 54 114 2.6 10.4 0.05 0.06 0.06 80 1012.3
20260507134501 55 94 4.3 10.4 0.01 0.01 0.01 74 1012.7
20260507133001 55 142 7.0 17.4 0.01 0.01 0.01 73 1012.2
20260507131502 56 95 5.2 15.6 0.01 0.01 0.01 73 1011.7
20260507130110 57 119 5.2 13.0 0.01 0.01 0.01 68 1011.7
20260507124620 61 137 3.5 9.6 0.00 0.00 0.00 59 1011.2
20260507123109 62 107 0.9 5.2 0.00 0.00 0.00 57 1011.4
20260507121604 63 147 0.9 7.0 0.00 0.00 0.00 57 1011.5
20260507114603 64 155 4.3 7.0 0.00 0.00 0.00 53 1011.7
20260507113059 64 172 2.6 6.1 0.00 0.00 0.00 54 1011.9
20260507111600 64 136 0.9 5.2 0.00 0.00 0.00 56 1012.2
20260507110059 62 107 3.5 8.7 0.00 0.00 0.00 58 1012.3
20260507104559 62 172 1.7 6.1 0.00 0.00 0.00 59 1012.5
20260507103114 60 161 1.7 7.0 0.00 0.00 0.00 61 1012.7
20260507101603 60 131 0.9 8.7 0.00 0.00 0.00 63 1012.9
20260507100113 59 318 2.6 8.7 0.00 0.00 0.00 63 1012.9
20260507100002 59 3 3.5 8.7 0.00 0.00 0.00 63 1013.0
20260507094501 58 124 0.9 5.2 0.00 0.00 0.00 65 1013.0
20260507093102 58 94 3.5 7.0 0.00 0.00 0.00 65 1013.0
20260507093001 58 71 3.5 7.0 0.00 0.00 0.00 65 1013.0
20260507091601 58 316 0.9 5.2 0.00 0.00 0.00 64 1013.1
20260507090001 58 298 1.7 6.1 0.00 0.00 0.00 64 1012.9
20260507084602 57 62 0.9 9.6 0.00 0.00 0.00 68 1013.0
20260507083119 56 20 1.7 7.0 0.00 0.00 0.00 68 1013.0
20260507081605 55 69 1.7 5.2 0.00 0.00 0.00 70 1013.0
20260507080059 55 23 4.3 8.7 0.00 0.00 0.00 70 1012.9
20260507074621 54 18 2.6 8.7 0.00 0.00 0.00 71 1012.9
20260507073104 54 6 2.6 5.2 0.00 0.00 0.00 71 1012.9
20260507071559 54 55 2.6 8.7 0.00 0.00 0.00 71 1013.0
20260507070104 54 324 4.3 9.6 0.00 0.00 0.00 71 1012.9